User: anonymous
Location: Unspecified
(0.0000°N, 0.0000°E)
Time: 06:15:15
(UTC+00:00)
Language:

AGILE - Orbit

View from above orbital plane
View from above orbital plane
View from above satellite
View from above satellite

Ground track
Ground track

The orbit data is extracted from the following two-line orbital elements,

1 31135U 07013A   14232.16123657  .00003345  00000-0  10338-3 0   339
2 31135 002.4659 184.4059 0015431 219.1974 140.7131 15.20369971405750
Epoch (UTC): 20 August 2014 03:52:10
Eccentricity: 0.0015431
inclination: 2.4659°
perigee height: 494 km
apogee height: 515 km
right ascension of ascending node: 184.4059°
argument of perigee: 219.1974°
revolutions per day: 15.20369971
mean anomaly at epoch: 140.7131°
orbit number at epoch: 40575

The dashed part of the orbit path shows where the satellite is in the earth's shadow,  

DLR